GEESAT 4-09

导读 | 豆包AI

GEESAT 4-09是中国于2025年8月8日发射的卫星。作为GEESAT 4系列的重要组成部分,该卫星承载着中国航天领域相关任务目标,有望在通信服务、遥感监测等应用场景中发挥作用,进一步推动中国卫星网络布局完善,助力商业航天发展,为相关领域的科研与应用提供数据与技术支撑。

基本信息
目录编号:
65127
目录名称:
GEESAT 4-09
国际标识:
2025-170J
轨道中心:
EARTH
卫星名称:
GEESAT 4-09
卫星全名:
GEESAT 4-09
卫星状态:
在轨 (已飞行217 天)
发射日期:
2025-08-08 UTC
国别 :
中国 (CN)
星等 :
--
轨道信息
数据来源 国际轨道数据 AOE轨道数据
星历时间 2026-03-13T22:57:12+0800
7小时前
查看轨道信息
2026-03-13T16:00:00+0800
14小时前
查看轨道信息
半长轴 7004.186km 7004.2km
偏心率 0.0022303 0.0022383
轨道倾角 49.991° 49.989°
近地点辐角 25.926° 24.488°
升交点赤经 285.199° 286.537°
平近点角 334.279° 229.907°
近地点 610.427km 610.385km
远地点 641.671km 641.741km
周期 97.229分钟 97.229分钟
每日圈数 14.810384 14.810339
详细信息
使用方式:
暂无
2D轨道图
3D轨道图
轨道高度分析图
轨道倾角分析图
轨道综合分析图
查看轨道综合分析图